Vorticity
9 9 8 8 8 8 8 8 8 8 8 7 7 7 7 7 7 8 8 8 9 9 10 10 10 10 10 11 10 10 10 10 10 11 10 8 7 6 7 8 8 8 8 8 7 8 8 8 7 7 6 6 6 6 6 5 5 5 5 6 6 6 5 5 6 7 7 8 10 9 10 10 12 14 12 12 11 10 11 8 8 8 7 7 6 5 3 2
10 10 9 9 9 8 8 8 9 9 9 8 8 7 7 7 8 8 8 9 9 9 9 9 10 10 10 10 10 11 10 10 10 10 8 6 5 5 6 7 7 8 9 8 8 8 7 7 7 7 6 6 6 5 5 5 6 6 6 7 6 6 5 6 8 8 7 8 9 10 11 10 11 14 13 13 9 8 10 7 6 7 6 5 5 6 5 5
12 12 11 10 9 9 9 9 9 9 9 9 8 8 8 8 8 8 8 8 8 8 8 9 9 9 9 9 10 10 10 10 10 9 8 6 4 4 6 7 8 8 8 9 8 8 7 7 6 7 6 6 6 6 5 6 6 6 7 7 6 7 7 8 8 8 8 8 10 10 11 10 11 13 13 13 11 8 11 12 8 4 5 5 5 6 4 6
11 12 12 12 11 10 9 9 9 9 9 9 9 9 8 8 8 8 8 8 8 8 8 9 9 9 9 9 9 9 10 9 9 9 7 5 4 4 6 7 8 8 9 9 8 8 7 7 7 7 6 6 6 5 6 6 7 7 7 7 8 9 9 9 9 9 9 9 10 11 11 11 11 13 12 11 12 7 5 11 12 6 5 5 4 6 6 8
10 10 11 11 12 12 11 10 9 9 9 9 9 9 9 8 8 8 8 8 8 8 8 8 9 9 9 9 10 10 9 9 9 9 7 5 4 5 6 7 7 8 8 8 8 8 8 7 7 7 6 6 5 5 6 6 7 7 8 8 8 9 8 8 8 9 10 9 10 10 10 11 12 13 11 11 10 8 5 7 9 6 4 5 5 5 8 11
9 9 9 10 10 11 12 12 11 10 9 8 8 9 9 8 8 7 7 7 7 7 7 7 7 9 9 10 10 9 9 9 10 9 8 6 4 5 7 7 7 8 8 7 8 8 7 7 7 7 6 6 6 6 7 7 8 8 8 9 8 9 9 9 9 10 11 10 9 10 10 11 13 12 10 11 9 9 11 9 6 6 6 7 5 5 7 8
8 8 8 9 9 9 9 10 11 11 10 9 8 8 9 9 8 7 6 6 5 5 4 4 4 4 6 9 10 10 9 9 9 9 9 8 7 7 7 7 8 8 8 7 7 7 6 6 6 6 6 6 6 6 8 9 9 10 10 10 9 10 10 11 12 12 11 11 10 11 10 10 12 11 9 11 10 9 9 7 7 8 10 8 6 6 6 4
7 7 7 7 7 7 7 7 8 9 10 10 9 9 9 9 9 8 7 7 7 7 7 6 5 3 2 3 7 10 10 9 9 9 8 9 9 9 9 10 10 9 8 7 7 7 6 5 5 5 4 5 6 8 10 9 10 10 10 9 9 10 11 12 12 11 11 11 12 12 10 9 11 11 10 9 9 10 8 7 9 9 10 8 8 7 6 6
7 7 7 6 6 6 7 7 6 6 7 8 8 9 9 10 10 9 8 8 8 8 9 9 10 10 8 5 4 6 8 10 10 9 8 8 8 9 8 9 9 9 9 8 8 6 5 4 4 3 3 5 7 9 10 8 9 9 10 9 9 10 10 12 11 10 11 11 13 12 7 7 11 10 9 8 8 8 8 8 8 8 8 5 5 4 5 6
7 6 6 6 6 6 6 7 7 6 7 6 5 6 7 9 10 11 9 8 8 8 8 8 8 9 10 11 9 6 6 6 9 9 8 8 8 8 7 7 7 7 7 7 7 6 6 5 4 3 2 5 8 9 8 7 9 9 11 11 10 10 9 12 10 10 13 10 12 11 5 7 12 9 5 6 9 8 6 7 7 7 6 4 4 3 3 2
6 6 5 5 5 6 6 6 7 6 7 7 5 4 4 6 8 10 11 11 10 9 9 8 7 7 7 8 9 10 9 6 7 7 7 8 8 8 8 8 7 6 6 6 6 5 5 4 4 2 2 5 6 7 7 7 9 9 10 10 10 10 9 12 11 11 12 10 10 11 6 7 10 9 4 4 7 7 7 7 6 6 5 5 6 5 7 6
5 5 5 5 5 5 7 7 7 6 7 9 7 6 4 4 5 7 10 11 11 11 10 10 10 9 8 8 7 8 10 8 8 7 8 8 8 9 8 8 7 7 7 6 6 6 6 5 4 3 3 5 5 6 7 8 9 8 9 9 9 10 8 10 11 11 11 8 8 11 11 10 10 9 4 5 6 5 7 7 6 7 7 8 8 8 9 8
4 5 5 5 4 5 6 7 7 7 8 10 10 8 7 5 4 4 5 8 10 10 10 10 10 11 11 10 8 8 8 8 8 8 8 8 8 8 7 7 6 6 6 6 6 6 6 6 5 5 4 4 4 6 6 7 8 7 8 8 9 10 7 9 12 13 11 8 8 12 14 11 9 7 4 5 6 4 6 6 6 6 5 6 5 6 7 7
5 4 4 4 4 4 6 7 7 8 9 11 12 11 9 8 6 4 2 3 6 7 8 9 9 10 10 11 9 9 10 8 8 8 8 8 7 7 6 6 6 6 6 6 6 5 5 4 4 4 3 3 3 3 5 6 6 7 8 8 9 8 6 9 14 13 10 8 9 11 13 12 9 9 9 6 4 5 6 5 5 5 4 3 1 2 3 5
5 4 4 4 4 5 6 8 9 9 10 12 12 13 12 11 10 7 4 2 1 3 4 5 6 5 7 9 7 7 10 8 7 8 7 8 7 7 7 7 7 7 6 6 6 6 5 5 5 5 5 5 4 3 4 5 5 7 8 8 9 7 6 10 11 10 10 9 11 12 12 10 6 9 15 11 5 4 4 5 6 6 4 3 4 5 4 4
6 4 4 4 4 5 6 8 9 10 11 12 13 13 13 13 13 11 9 7 4 2 1 2 3 1 1 5 4 3 6 5 5 5 5 5 5 5 4 4 4 4 5 6 7 7 7 7 7 6 6 6 6 6 5 5 5 6 7 7 8 8 8 10 8 9 12 11 11 12 9 5 2 8 14 13 11 7 3 3 4 5 5 5 7 6 5 4
6 5 4 4 4 4 6 7 8 9 9 11 12 12 13 13 14 14 13 13 11 10 7 6 7 4 3 5 3 1 3 4 4 3 3 3 2 2 2 3 4 5 6 6 8 8 7 7 7 7 6 6 6 6 6 7 6 6 7 7 7 8 9 9 9 11 13 12 12 11 8 7 6 9 11 11 13 12 6 4 2 2 2 3 5 5 4 2
6 5 4 3 3 3 5 6 7 7 8 10 10 11 11 12 13 13 14 15 15 15 14 14 14 12 11 10 8 6 6 7 7 7 7 8 9 10 10 11 11 11 11 11 10 9 9 10 9 7 8 9 8 8 9 7 5 6 7 7 8 9 10 8 9 12 12 11 11 12 10 10 10 10 10 10 11 12 10 10 7 3 0 -2 -1 0 0 -0
6 6 5 4 4 3 4 6 7 7 7 9 9 9 10 11 11 11 12 12 12 14 14 15 16 14 15 16 16 14 13 13 14 15 15 16 16 16 16 16 16 15 14 13 11 12 13 12 10 11 12 10 8 8 8 5 5 6 7 9 9 9 7 5 9 11 10 10 10 11 11 9 10 11 11 10 9 10 9 11 13 11 8 4 2 1 -1 -2
7 6 6 5 4 3 4 6 7 7 6 8 9 9 9 10 10 10 10 10 9 10 11 11 13 13 14 14 14 14 13 13 14 15 15 14 13 13 13 14 14 15 14 12 12 13 12 11 13 13 11 9 7 5 4 5 6 6 8 9 8 8 4 4 12 10 8 11 9 9 10 8 9 10 12 11 11 11 9 9 12 12 13 12 11 12 10 8
6 6 6 5 4 3 4 6 6 7 6 8 9 9 9 9 10 10 9 9 8 9 9 9 10 10 10 10 10 11 11 11 11 11 11 11 11 11 10 11 12 12 11 11 12 12 10 12 13 10 9 9 7 5 5 7 7 7 9 8 9 9 2 5 14 11 9 13 9 7 9 9 8 9 9 11 13 13 12 10 10 9 11 11 11 13 14 12
4 4 6 5 4 3 5 6 7 7 7 9 10 9 9 9 10 10 9 10 9 9 9 9 9 9 9 9 10 9 9 10 10 9 9 9 9 9 9 10 9 8 9 10 11 11 11 12 9 8 10 9 8 7 7 8 8 9 10 10 12 8 3 8 11 8 8 11 9 7 7 8 8 9 8 9 12 14 15 14 13 12 12 12 12 13 12 10
5 4 5 5 5 4 6 7 7 7 8 9 10 10 10 10 10 11 10 10 10 9 10 10 10 10 10 10 9 9 9 9 9 8 9 8 8 9 9 10 7 6 8 8 9 10 11 11 10 10 11 9 9 9 8 8 8 9 10 11 11 6 6 9 7 7 10 9 9 8 8 9 8 8 10 9 9 11 15 15 13 14 15 15 15 14 12 10
8 6 6 6 5 6 6 8 8 8 8 9 10 10 11 10 10 11 10 11 10 9 10 11 10 11 11 10 10 10 10 11 10 10 10 10 10 10 8 7 6 7 7 7 8 9 8 10 11 11 11 10 10 10 9 9 9 9 11 13 11 6 6 6 3 7 10 10 11 9 8 10 9 7 7 10 10 10 12 13 13 12 12 13 13 13 13 12
9 7 6 6 6 7 7 8 8 8 9 10 10 10 11 11 10 10 10 11 10 9 11 12 12 11 10 10 11 10 8 9 10 9 9 10 10 9 8 7 7 8 7 6 7 7 7 10 11 10 10 11 11 11 11 12 12 13 14 15 11 5 6 6 6 8 10 11 13 13 11 9 13 15 10 8 11 13 11 10 13 13 10 9 9 12 14 13
7 7 7 7 7 8 9 9 9 9 10 10 10 10 11 11 11 11 11 11 10 10 10 11 12 11 9 8 8 9 8 8 10 10 10 11 9 8 8 8 8 8 7 8 8 9 9 10 10 9 11 11 10 11 13 14 14 14 14 12 8 7 9 9 8 8 8 6 7 15 15 5 4 10 12 9 7 11 14 11 12 14 11 9 10 11 13 13
8 8 8 8 9 9 10 9 10 10 10 10 10 11 11 11 10 11 13 11 9 10 10 10 10 11 12 11 7 8 9 9 10 10 10 10 10 10 9 9 10 9 8 9 11 13 13 9 8 9 9 9 10 12 14 14 12 10 10 8 7 9 12 12 10 9 7 4 5 11 16 12 5 2 8 13 10 9 13 13 13 13 10 11 13 12 11 11
9 8 9 10 10 10 10 10 11 11 10 10 10 11 11 11 10 11 12 11 8 10 10 9 8 8 11 12 10 8 8 8 9 10 10 9 9 9 9 10 10 8 8 10 9 8 9 8 7 9 9 9 12 13 10 9 10 9 7 7 8 10 11 11 9 7 6 7 10 12 15 18 14 7 9 13 9 8 15 16 14 15 13 12 11 10 12 12
9 9 10 10 9 10 10 11 11 11 10 10 10 11 10 9 10 11 10 9 8 10 10 9 9 9 10 12 12 11 10 9 9 10 10 9 9 10 10 11 11 9 8 11 8 3 7 10 8 10 11 12 14 11 8 9 11 9 8 9 9 10 10 10 7 6 6 8 10 10 13 17 15 11 12 16 10 6 14 16 14 15 13 12 12 10 13 14
8 8 9 9 9 10 11 11 11 10 10 10 9 9 9 9 10 10 10 9 9 9 9 10 10 9 9 11 12 12 12 12 11 10 11 11 10 10 10 9 9 9 8 11 9 6 11 12 11 13 12 12 12 10 11 14 13 11 11 12 11 8 7 7 7 6 6 8 9 8 10 14 16 11 6 12 15 8 8 8 8 12 11 12 15 13 13 16
8 8 9 9 10 10 11 12 12 10 10 9 9 9 9 9 9 8 9 10 10 9 9 10 10 9 9 10 11 10 10 10 10 11 11 12 12 11 12 10 10 10 8 10 10 10 14 13 13 14 11 10 11 10 11 12 14 14 12 11 9 9 9 6 6 6 4 5 8 11 12 11 13 14 10 12 13 8 8 7 4 8 10 11 14 14 15 16
8 8 9 10 11 11 12 12 11 10 10 9 9 9 8 8 9 9 10 9 9 9 10 10 10 11 12 12 12 12 12 11 11 10 10 10 11 12 12 10 10 10 9 11 13 11 13 13 12 12 11 12 11 10 10 10 13 15 14 12 7 6 10 7 5 7 7 6 6 10 13 10 8 11 17 23 16 5 7 9 5 6 9 12 13 12 13 16
9 10 11 11 12 12 12 11 10 9 9 9 8 8 8 7 8 10 11 10 10 10 11 12 11 11 12 13 12 12 12 11 10 11 10 10 10 10 11 10 10 10 7 10 13 12 10 10 10 9 9 11 10 10 11 12 13 13 12 13 8 4 8 11 8 6 9 8 8 11 9 6 8 10 14 22 18 9 7 7 7 7 10 17 16 8 9 14
9 10 11 12 12 11 11 10 9 9 8 8 8 8 8 8 9 10 11 11 11 10 11 13 13 11 12 12 11 10 10 11 10 10 11 11 10 10 11 11 11 11 8 6 8 10 10 10 12 12 10 8 8 9 10 10 11 10 9 9 7 4 4 10 12 10 12 12 12 17 12 5 10 14 17 18 13 11 10 7 8 8 12 22 16 1 3 9
10 10 10 11 10 10 9 8 8 8 7 8 8 9 9 10 11 12 12 11 11 11 11 11 10 9 10 11 11 10 9 8 9 9 10 10 10 10 10 10 11 11 11 10 7 8 10 8 5 8 11 10 9 7 7 9 8 9 9 5 5 6 1 1 3 2 4 6 9 14 12 9 9 10 15 16 12 15 15 7 7 9 15 23 12 -4 2 6
11 10 10 10 9 8 8 7 7 8 8 9 9 10 11 11 11 12 12 12 11 10 9 9 8 7 8 9 9 10 9 7 8 8 8 8 8 8 8 9 10 10 12 14 12 12 14 14 9 6 8 9 10 8 8 7 5 8 11 9 9 10 6 4 5 6 4 1 3 5 4 9 11 8 11 13 10 13 19 15 9 10 17 21 11 2 9 9
11 10 9 9 8 8 7 7 8 9 10 10 10 11 11 11 11 10 11 10 10 9 8 7 7 6 7 8 8 9 8 9 11 10 7 7 9 9 9 10 10 10 12 13 13 13 13 15 16 14 11 9 10 10 9 8 5 5 7 10 14 13 8 5 5 9 14 12 10 9 6 7 9 10 13 18 15 9 16 20 12 10 17 20 12 7 11 8
9 8 7 7 7 8 8 8 10 10 11 11 11 11 10 10 11 11 11 11 10 10 9 8 8 7 7 8 8 8 7 6 9 12 10 6 6 8 7 7 7 6 9 11 11 12 13 12 15 17 16 14 13 10 9 9 7 5 2 2 9 12 12 12 6 2 5 7 6 8 10 9 8 9 9 16 21 12 14 21 13 9 16 19 14 9 8 5
8 7 6 7 7 8 9 10 11 11 11 11 11 11 10 10 12 12 13 14 13 12 11 10 10 8 8 8 9 10 9 4 3 10 16 11 6 6 5 5 6 6 7 9 9 11 12 11 12 16 15 15 16 12 9 10 10 10 5 0 0 1 5 10 10 6 4 6 8 8 11 13 13 15 12 13 20 16 16 20 12 8 12 15 12 8 8 8
8 7 7 8 9 9 10 11 11 11 11 11 11 12 12 12 14 14 14 14 14 13 12 11 10 9 9 9 9 10 12 9 2 4 13 13 8 9 9 7 5 5 7 8 9 9 9 6 4 7 9 9 12 11 8 8 11 13 13 11 9 5 4 4 3 6 5 4 7 7 8 12 14 16 15 15 20 20 20 19 11 6 9 14 13 6 6 8
9 8 8 10 10 11 11 11 10 11 11 13 13 13 13 14 14 14 14 13 12 12 11 10 10 10 9 8 8 8 11 13 7 5 12 15 9 6 10 10 6 6 8 9 10 9 9 7 2 2 5 6 7 10 9 6 7 9 10 12 13 9 9 5 2 7 7 -0 -1 0 2 6 10 17 17 15 19 21 20 19 11 5 4 6 10 9 7 6
9 9 10 11 11 11 11 10 11 12 12 14 14 13 13 14 13 13 14 14 13 13 13 12 11 11 10 8 8 6 6 9 8 7 12 17 12 4 4 8 8 8 9 10 14 16 15 14 11 7 8 8 4 3 7 8 8 6 2 3 5 5 8 8 4 6 9 5 2 2 2 1 2 10 15 14 16 16 17 17 14 12 9 2 3 8 6 6
9 10 10 11 11 11 11 10 12 14 13 13 13 13 13 13 13 13 13 12 12 11 12 12 12 12 11 10 10 8 7 8 6 4 7 13 13 10 6 5 6 9 8 6 7 11 12 13 15 15 13 9 4 2 4 4 7 10 7 3 1 -1 2 6 4 1 3 5 4 5 8 11 11 12 12 11 12 13 15 15 11 12 14 8 5 7 6 6
10 10 10 11 11 11 11 12 13 13 13 13 12 12 12 11 11 10 8 8 8 8 8 10 11 12 11 11 12 10 8 9 6 2 3 7 8 9 9 8 7 5 6 7 5 5 8 7 7 14 18 13 7 9 11 8 5 7 10 9 7 3 2 3 5 6 7 5 5 6 6 8 12 12 11 13 13 12 13 15 13 11 12 11 7 6 6 5
10 10 10 10 10 12 12 13 13 13 12 12 10 8 8 8 8 6 5 5 6 7 9 10 12 13 13 12 12 11 10 10 9 6 10 16 12 7 8 9 12 10 7 10 6 1 5 7 3 3 11 17 15 8 9 15 15 10 9 11 10 8 6 5 6 6 6 5 7 8 6 6 8 4 3 8 10 8 8 11 17 18 16 16 13 10 10 8
10 10 10 10 11 12 12 13 14 12 10 9 7 7 7 7 8 6 6 6 6 9 11 13 15 17 18 18 17 17 15 11 9 3 5 14 13 9 8 8 11 13 10 12 12 5 5 9 7 2 2 15 25 17 6 9 13 10 10 11 11 11 7 5 6 5 3 7 8 4 1 3 6 5 3 4 3 5 7 8 13 19 20 19 17 16 17 17
9 9 11 12 13 12 11 12 12 9 8 8 7 8 8 8 9 9 8 8 8 10 12 14 17 17 17 19 19 21 21 20 20 13 5 7 9 10 11 8 6 6 4 9 15 16 17 14 8 3 0 3 14 23 22 17 9 3 7 11 9 13 12 6 7 9 4 3 4 8 13 11 5 8 11 9 4 4 7 6 7 15 22 20 17 17 15 16
9 9 11 12 12 13 12 10 9 7 8 8 7 8 9 9 10 9 8 8 8 9 11 14 16 15 14 13 12 14 17 18 22 21 14 12 12 11 10 9 9 8 6 3 -2 -2 13 25 21 14 12 8 2 4 18 30 25 10 6 11 8 7 12 10 8 10 7 2 1 6 16 16 8 7 9 10 7 2 2 5 5 9 14 15 17 17 13 14
9 10 11 11 11 13 11 8 8 8 8 9 8 8 9 9 10 9 9 9 7 8 10 13 17 17 12 8 6 8 10 11 14 19 19 19 18 16 12 10 10 9 9 8 1 -4 -1 7 11 12 15 17 11 3 2 17 33 27 12 13 14 7 9 11 8 8 6 5 5 1 -1 2 4 5 6 7 8 6 3 4 7 8 8 10 14 16 12 12
10 10 12 11 9 10 9 8 8 8 8 8 7 8 9 9 10 10 10 9 6 6 9 13 19 20 13 8 7 8 9 7 7 10 14 17 21 23 20 17 13 10 12 12 12 12 2 -10 -7 3 8 10 13 14 6 1 19 32 21 14 15 10 8 10 9 8 6 3 5 4 2 5 6 5 6 7 8 11 10 8 6 5 5 8 12 13 11 11
11 10 11 11 8 7 9 9 8 8 7 6 6 7 9 9 10 10 10 9 8 6 8 13 18 21 17 10 7 8 11 12 10 7 7 7 10 15 20 22 18 12 13 13 15 22 22 13 10 9 7 9 9 13 14 6 7 21 24 19 17 13 11 11 9 7 8 4 2 1 1 5 7 6 9 10 9 11 12 11 10 6 3 6 9 10 9 9
11 10 9 9 8 7 8 9 8 7 6 6 6 7 8 9 9 9 10 10 8 7 9 12 17 22 22 15 8 5 5 9 11 11 10 7 5 6 11 17 19 16 12 6 4 13 19 18 16 10 7 14 14 11 16 12 2 5 14 20 27 26 17 14 15 14 13 9 6 5 5 6 8 8 8 10 10 12 12 11 11 8 7 6 5 7 7 3
Height
5753 5754 5755 5756 5757 5759 5760 5761 5762 5764 5765 5766 5767 5768 5769 5770 5771 5773 5774 5775 5776 5777 5779 5780 5781 5782 5783 5784 5785 5786 5788 5789 5790 5792 5793 5795 5796 5797 5798 5800 5801 5802 5803 5803 5804 5805 5806 5806 5807 5808 5809 5810 5810 5810 5811 5811 5811 5811 5811 5811 5811 5811 5811 5811 5812 5812 5812 5812 5813 5813 5813 5813 5813 5814 5815 5815 5816 5818 5818 5818 5819 5819 5820 5821 5821 5822 5823 5823
5749 5750 5751 5752 5754 5755 5756 5757 5759 5760 5761 5762 5763 5764 5765 5767 5768 5769 5770 5771 5772 5774 5775 5776 5778 5779 5780 5781 5782 5783 5785 5786 5787 5789 5790 5792 5793 5794 5795 5797 5798 5799 5800 5800 5801 5802 5803 5803 5804 5805 5806 5807 5807 5807 5807 5807 5807 5807 5808 5808 5808 5808 5808 5809 5809 5809 5809 5809 5810 5810 5810 5810 5810 5812 5813 5813 5813 5815 5815 5815 5815 5816 5816 5817 5818 5819 5820 5821
5746 5747 5748 5749 5750 5751 5752 5754 5755 5756 5758 5759 5760 5761 5762 5763 5764 5766 5767 5768 5769 5770 5772 5773 5774 5776 5777 5778 5779 5780 5782 5783 5784 5786 5787 5789 5790 5791 5792 5794 5795 5796 5797 5797 5798 5799 5800 5801 5802 5802 5803 5804 5804 5804 5804 5804 5804 5804 5805 5805 5805 5805 5805 5806 5806 5806 5806 5806 5807 5807 5808 5808 5808 5809 5810 5810 5811 5812 5813 5813 5813 5813 5813 5814 5815 5816 5817 5819
5742 5743 5744 5745 5746 5748 5749 5750 5752 5753 5754 5755 5756 5757 5758 5760 5761 5762 5764 5765 5766 5767 5769 5770 5771 5773 5774 5775 5776 5777 5779 5780 5781 5783 5784 5786 5787 5788 5789 5791 5792 5793 5794 5795 5796 5797 5797 5798 5799 5800 5800 5801 5801 5801 5801 5801 5801 5801 5802 5802 5802 5803 5802 5803 5804 5803 5803 5803 5804 5805 5805 5805 5805 5805 5806 5808 5808 5809 5811 5811 5811 5811 5811 5812 5813 5815 5816 5817
5738 5739 5741 5742 5743 5744 5746 5747 5748 5749 5751 5752 5753 5754 5755 5757 5758 5759 5760 5762 5763 5764 5766 5767 5768 5770 5771 5772 5773 5775 5776 5776 5778 5780 5781 5783 5784 5785 5786 5787 5789 5790 5791 5792 5793 5794 5795 5796 5796 5797 5797 5798 5798 5798 5799 5799 5799 5799 5799 5799 5800 5800 5800 5800 5801 5801 5801 5801 5801 5801 5802 5802 5802 5803 5803 5805 5805 5806 5807 5808 5808 5809 5809 5810 5812 5814 5815 5817
5734 5736 5737 5738 5740 5741 5742 5744 5745 5746 5747 5748 5750 5751 5752 5754 5755 5756 5757 5759 5760 5761 5763 5764 5765 5767 5768 5769 5770 5772 5772 5773 5775 5777 5778 5780 5781 5782 5783 5784 5786 5787 5788 5789 5790 5791 5792 5793 5794 5794 5795 5795 5796 5796 5796 5796 5796 5796 5797 5797 5797 5797 5797 5798 5798 5798 5798 5798 5798 5798 5799 5799 5799 5800 5801 5802 5803 5804 5805 5805 5806 5806 5808 5809 5811 5813 5815 5816
5730 5732 5733 5735 5736 5738 5739 5740 5742 5743 5744 5745 5746 5748 5749 5751 5752 5753 5754 5756 5757 5758 5760 5761 5763 5764 5765 5767 5768 5769 5770 5771 5772 5774 5775 5776 5778 5779 5780 5782 5783 5784 5785 5786 5787 5789 5790 5790 5791 5791 5792 5793 5793 5794 5794 5793 5793 5794 5794 5794 5794 5795 5795 5795 5795 5796 5796 5796 5795 5795 5796 5796 5797 5797 5798 5799 5800 5802 5802 5803 5804 5805 5806 5808 5810 5812 5813 5814
5727 5728 5730 5731 5733 5734 5735 5737 5738 5740 5741 5742 5744 5745 5746 5748 5749 5750 5752 5753 5754 5755 5757 5758 5760 5761 5763 5764 5765 5766 5767 5768 5770 5771 5772 5773 5775 5776 5777 5779 5780 5781 5782 5783 5785 5786 5787 5788 5788 5789 5789 5790 5791 5791 5791 5791 5791 5791 5792 5792 5792 5792 5793 5793 5793 5793 5793 5793 5793 5793 5793 5794 5794 5795 5796 5797 5798 5799 5800 5801 5802 5804 5805 5807 5808 5809 5811 5812
5723 5725 5726 5727 5729 5730 5732 5733 5735 5736 5738 5739 5740 5742 5743 5744 5746 5747 5749 5749 5751 5752 5753 5755 5756 5758 5759 5760 5762 5763 5764 5765 5767 5768 5769 5770 5772 5773 5774 5776 5777 5778 5779 5780 5782 5783 5784 5785 5785 5786 5787 5787 5788 5788 5788 5788 5788 5788 5789 5789 5789 5790 5790 5790 5790 5791 5791 5791 5791 5791 5791 5790 5791 5793 5795 5795 5796 5797 5798 5799 5800 5802 5804 5805 5806 5807 5809 5810
5720 5721 5723 5724 5725 5727 5728 5730 5731 5733 5734 5736 5737 5738 5740 5741 5742 5744 5745 5746 5747 5748 5750 5751 5753 5754 5756 5757 5758 5759 5761 5762 5763 5765 5766 5767 5768 5770 5771 5772 5774 5775 5776 5778 5779 5780 5781 5782 5783 5783 5784 5785 5785 5785 5785 5785 5785 5786 5786 5787 5787 5787 5788 5788 5787 5788 5788 5788 5788 5788 5788 5788 5789 5791 5793 5793 5794 5795 5796 5797 5799 5800 5802 5803 5804 5806 5807 5808
5716 5717 5719 5720 5722 5723 5725 5726 5728 5730 5731 5732 5733 5735 5736 5738 5739 5741 5742 5743 5744 5745 5746 5748 5749 5750 5752 5753 5755 5756 5758 5759 5760 5761 5763 5764 5765 5766 5768 5769 5771 5772 5773 5775 5776 5777 5778 5779 5780 5780 5781 5782 5782 5783 5783 5782 5783 5783 5783 5784 5784 5784 5785 5785 5785 5785 5785 5786 5786 5786 5785 5786 5787 5789 5790 5791 5792 5793 5794 5795 5796 5798 5800 5801 5802 5804 5805 5805
5712 5714 5715 5717 5718 5720 5721 5723 5725 5726 5727 5728 5730 5731 5733 5735 5736 5738 5739 5740 5740 5741 5742 5744 5745 5747 5748 5750 5751 5753 5754 5755 5757 5758 5759 5761 5762 5763 5765 5766 5767 5769 5770 5771 5772 5774 5775 5776 5777 5777 5778 5779 5779 5780 5780 5780 5780 5781 5781 5781 5781 5781 5782 5782 5782 5782 5782 5783 5783 5783 5784 5785 5785 5787 5787 5788 5790 5791 5792 5793 5795 5796 5797 5799 5800 5802 5803 5803
5708 5710 5712 5713 5715 5716 5718 5720 5721 5722 5724 5724 5726 5727 5729 5731 5733 5734 5735 5736 5737 5738 5739 5740 5742 5743 5745 5746 5747 5749 5751 5752 5753 5754 5756 5757 5758 5760 5761 5762 5764 5765 5767 5768 5769 5770 5771 5772 5773 5774 5775 5776 5776 5777 5778 5777 5778 5778 5778 5778 5778 5779 5779 5780 5780 5780 5780 5780 5780 5780 5783 5784 5783 5784 5784 5785 5788 5789 5790 5792 5793 5794 5795 5797 5798 5800 5801 5801
5705 5706 5708 5710 5712 5713 5715 5716 5718 5719 5720 5721 5722 5724 5725 5727 5729 5730 5732 5733 5734 5735 5736 5737 5738 5740 5742 5742 5744 5746 5747 5749 5750 5751 5752 5754 5755 5756 5758 5759 5760 5762 5763 5764 5765 5766 5767 5769 5770 5771 5772 5773 5774 5775 5774 5775 5775 5775 5775 5775 5776 5776 5776 5777 5778 5778 5778 5777 5777 5778 5780 5782 5780 5779 5781 5783 5785 5787 5788 5789 5790 5792 5793 5795 5796 5798 5799 5799
5701 5703 5705 5707 5708 5710 5711 5713 5714 5716 5717 5718 5719 5720 5721 5723 5724 5726 5728 5729 5730 5731 5732 5734 5735 5737 5738 5739 5740 5743 5744 5745 5747 5748 5749 5750 5751 5753 5754 5756 5757 5759 5760 5761 5762 5763 5764 5765 5766 5767 5768 5770 5770 5771 5771 5772 5772 5772 5773 5773 5774 5774 5774 5775 5776 5775 5775 5775 5775 5776 5778 5780 5777 5776 5780 5782 5783 5784 5785 5786 5788 5789 5791 5793 5794 5796 5797 5797
5697 5699 5701 5703 5705 5706 5708 5709 5711 5712 5713 5714 5715 5716 5717 5719 5720 5722 5723 5725 5726 5727 5729 5730 5732 5734 5735 5736 5737 5739 5741 5741 5743 5744 5745 5747 5748 5749 5751 5752 5754 5756 5757 5758 5758 5759 5761 5762 5763 5764 5765 5766 5767 5768 5768 5769 5769 5769 5770 5770 5771 5771 5771 5772 5772 5773 5773 5773 5773 5774 5774 5776 5774 5774 5778 5779 5780 5782 5783 5783 5785 5787 5789 5791 5792 5794 5795 5796
5694 5696 5698 5700 5701 5703 5704 5706 5707 5708 5710 5711 5712 5712 5714 5715 5716 5717 5719 5720 5722 5723 5725 5727 5728 5730 5731 5732 5733 5735 5737 5738 5739 5741 5742 5743 5745 5746 5747 5749 5750 5752 5753 5754 5755 5756 5757 5758 5759 5760 5761 5762 5764 5764 5765 5765 5766 5767 5767 5768 5768 5768 5769 5769 5769 5770 5771 5770 5771 5771 5771 5772 5773 5773 5775 5776 5778 5779 5780 5780 5782 5785 5787 5788 5790 5792 5793 5794
5690 5692 5694 5696 5698 5699 5701 5702 5703 5705 5706 5707 5708 5709 5710 5711 5712 5714 5715 5716 5718 5719 5721 5723 5724 5725 5726 5728 5729 5730 5732 5735 5736 5737 5738 5740 5741 5742 5743 5745 5746 5748 5749 5750 5751 5752 5753 5754 5755 5755 5757 5759 5760 5761 5762 5762 5763 5763 5764 5765 5765 5766 5766 5766 5766 5767 5768 5768 5768 5769 5769 5770 5772 5772 5772 5773 5775 5776 5777 5777 5779 5782 5784 5786 5788 5790 5791 5793
5686 5689 5691 5693 5694 5696 5697 5698 5700 5701 5702 5704 5704 5705 5706 5708 5709 5710 5712 5713 5714 5716 5717 5719 5720 5721 5722 5724 5726 5727 5728 5730 5732 5734 5734 5735 5737 5738 5740 5741 5742 5744 5745 5746 5747 5748 5749 5750 5751 5752 5754 5756 5757 5757 5758 5758 5759 5760 5761 5762 5762 5763 5763 5763 5763 5764 5765 5765 5766 5767 5767 5768 5770 5771 5770 5770 5772 5773 5773 5774 5776 5780 5782 5784 5785 5787 5789 5791
5683 5685 5687 5689 5691 5692 5694 5695 5696 5697 5699 5700 5701 5702 5703 5704 5706 5707 5709 5710 5711 5712 5714 5715 5717 5718 5719 5721 5722 5723 5724 5726 5729 5731 5732 5733 5733 5735 5736 5738 5739 5740 5741 5741 5743 5744 5745 5745 5747 5749 5751 5751 5752 5753 5753 5754 5756 5757 5757 5758 5759 5760 5760 5760 5761 5761 5762 5763 5763 5764 5764 5765 5767 5770 5768 5767 5768 5770 5770 5771 5774 5777 5779 5781 5782 5784 5786 5788
5679 5682 5684 5686 5688 5689 5690 5691 5692 5694 5695 5697 5698 5698 5700 5701 5703 5704 5706 5706 5707 5709 5710 5712 5714 5715 5716 5717 5719 5720 5722 5723 5726 5728 5729 5730 5730 5731 5733 5734 5735 5736 5737 5737 5739 5740 5741 5742 5744 5745 5746 5747 5747 5748 5749 5751 5752 5753 5754 5755 5756 5757 5756 5756 5758 5758 5759 5760 5760 5760 5761 5761 5764 5767 5766 5764 5766 5768 5769 5769 5771 5773 5776 5777 5779 5781 5783 5785
5676 5678 5680 5682 5684 5686 5687 5688 5689 5690 5692 5693 5694 5695 5696 5698 5700 5701 5702 5703 5704 5706 5707 5709 5711 5712 5713 5714 5716 5718 5719 5721 5723 5724 5726 5727 5727 5728 5730 5731 5731 5732 5733 5734 5735 5737 5737 5739 5740 5741 5741 5742 5744 5745 5746 5748 5749 5750 5751 5752 5753 5754 5753 5753 5754 5755 5755 5756 5757 5757 5757 5758 5761 5764 5763 5762 5763 5766 5767 5767 5768 5770 5773 5774 5776 5779 5780 5781
5672 5675 5677 5679 5681 5682 5683 5684 5685 5687 5688 5690 5691 5692 5693 5695 5696 5698 5699 5700 5701 5703 5704 5706 5707 5709 5710 5712 5713 5714 5716 5718 5719 5720 5722 5723 5724 5725 5726 5727 5727 5728 5729 5730 5732 5733 5734 5735 5736 5737 5738 5739 5740 5742 5743 5744 5746 5746 5747 5748 5749 5750 5751 5751 5751 5751 5753 5753 5754 5755 5754 5755 5758 5760 5761 5760 5761 5763 5765 5765 5767 5768 5770 5772 5773 5774 5776 5778
5669 5671 5674 5676 5678 5679 5680 5681 5682 5683 5685 5686 5688 5689 5690 5692 5693 5695 5696 5697 5697 5699 5702 5703 5704 5706 5707 5709 5710 5711 5713 5714 5715 5716 5718 5719 5720 5722 5723 5724 5724 5725 5726 5727 5728 5729 5730 5731 5733 5733 5735 5736 5737 5738 5740 5741 5742 5743 5744 5745 5746 5747 5748 5748 5747 5748 5750 5750 5752 5753 5752 5753 5756 5757 5758 5757 5758 5761 5762 5763 5764 5766 5768 5769 5769 5770 5772 5775
5665 5668 5670 5672 5674 5675 5677 5678 5679 5680 5681 5683 5684 5686 5687 5689 5690 5692 5693 5694 5694 5695 5698 5700 5702 5703 5703 5705 5706 5708 5709 5711 5712 5713 5714 5716 5717 5718 5719 5720 5721 5722 5723 5724 5725 5726 5726 5728 5729 5730 5731 5732 5734 5735 5737 5738 5739 5740 5741 5742 5743 5744 5744 5745 5745 5746 5748 5748 5749 5751 5751 5752 5753 5754 5755 5754 5756 5758 5759 5761 5762 5763 5764 5765 5766 5768 5770 5771
5662 5665 5667 5669 5670 5672 5673 5674 5675 5677 5678 5680 5681 5683 5684 5686 5687 5689 5690 5692 5692 5692 5694 5696 5698 5700 5701 5701 5703 5705 5706 5707 5709 5710 5711 5712 5714 5715 5715 5716 5718 5719 5720 5721 5722 5722 5723 5725 5726 5727 5728 5729 5730 5732 5733 5735 5736 5737 5737 5738 5739 5740 5741 5742 5743 5744 5746 5745 5745 5748 5750 5750 5750 5751 5751 5752 5754 5755 5756 5758 5759 5760 5761 5762 5763 5765 5766 5767
5659 5661 5663 5665 5667 5669 5670 5671 5672 5674 5675 5677 5678 5680 5681 5683 5685 5686 5688 5689 5689 5689 5691 5692 5694 5696 5698 5699 5700 5701 5702 5704 5706 5707 5708 5709 5710 5711 5712 5713 5715 5716 5717 5718 5718 5719 5720 5721 5722 5723 5725 5726 5727 5729 5730 5732 5733 5733 5734 5735 5736 5737 5738 5739 5741 5742 5743 5743 5743 5745 5747 5747 5748 5749 5748 5749 5751 5752 5753 5755 5756 5757 5758 5759 5760 5761 5762 5763
5655 5658 5660 5662 5664 5665 5667 5668 5670 5671 5672 5674 5675 5677 5679 5680 5682 5683 5685 5686 5686 5687 5688 5689 5691 5693 5695 5696 5697 5698 5699 5700 5702 5703 5705 5706 5707 5708 5709 5710 5712 5712 5713 5714 5715 5716 5717 5717 5719 5721 5722 5723 5724 5726 5727 5728 5729 5729 5730 5731 5732 5734 5735 5737 5739 5740 5740 5741 5741 5742 5743 5744 5745 5746 5745 5747 5748 5748 5750 5752 5753 5754 5755 5756 5757 5758 5759 5760
5652 5654 5657 5659 5660 5662 5664 5665 5667 5668 5670 5671 5672 5674 5676 5677 5679 5681 5682 5683 5684 5684 5685 5686 5688 5689 5691 5693 5694 5695 5696 5697 5698 5700 5702 5703 5704 5705 5706 5707 5708 5708 5709 5711 5711 5712 5713 5715 5717 5718 5719 5720 5722 5723 5723 5724 5725 5726 5727 5729 5730 5732 5734 5735 5737 5737 5738 5739 5740 5740 5740 5741 5742 5743 5743 5744 5745 5745 5747 5749 5751 5752 5752 5753 5754 5755 5756 5756
5649 5651 5654 5656 5657 5659 5661 5663 5664 5665 5667 5668 5670 5672 5673 5675 5676 5678 5679 5680 5681 5681 5682 5683 5685 5686 5688 5690 5691 5692 5693 5694 5695 5697 5698 5699 5701 5702 5703 5704 5704 5705 5706 5707 5708 5709 5711 5713 5714 5715 5717 5718 5720 5720 5721 5722 5723 5724 5725 5727 5729 5730 5731 5733 5734 5735 5735 5736 5738 5738 5737 5737 5739 5741 5741 5740 5742 5744 5745 5747 5748 5749 5750 5750 5751 5752 5752 5753
5646 5649 5651 5653 5655 5657 5658 5660 5661 5663 5664 5666 5667 5669 5670 5672 5673 5675 5676 5677 5678 5678 5679 5680 5682 5683 5685 5687 5688 5689 5690 5691 5692 5694 5695 5696 5697 5699 5700 5700 5701 5703 5703 5705 5706 5707 5709 5710 5711 5713 5714 5715 5717 5718 5719 5720 5721 5722 5724 5726 5727 5728 5729 5731 5731 5732 5733 5734 5734 5734 5734 5734 5736 5738 5737 5738 5740 5742 5743 5745 5746 5747 5747 5748 5748 5749 5750 5750
5644 5646 5648 5650 5652 5654 5656 5657 5659 5660 5662 5663 5665 5666 5668 5669 5670 5672 5673 5674 5675 5675 5676 5678 5679 5681 5682 5684 5685 5686 5687 5688 5689 5690 5692 5693 5694 5696 5697 5698 5699 5700 5702 5703 5705 5706 5706 5707 5709 5709 5710 5712 5715 5715 5716 5718 5720 5721 5722 5724 5725 5726 5726 5728 5728 5729 5731 5731 5730 5732 5732 5732 5733 5735 5735 5736 5739 5740 5741 5743 5744 5744 5745 5745 5746 5747 5748 5749
5642 5644 5646 5648 5650 5652 5653 5655 5656 5658 5659 5661 5662 5663 5665 5666 5667 5669 5670 5671 5671 5672 5674 5675 5676 5678 5680 5680 5681 5682 5684 5684 5686 5687 5689 5690 5691 5693 5694 5695 5696 5698 5699 5701 5702 5703 5704 5705 5706 5706 5707 5710 5712 5713 5714 5716 5718 5719 5720 5721 5723 5724 5724 5725 5726 5727 5728 5728 5728 5729 5729 5729 5731 5732 5733 5735 5736 5737 5738 5740 5741 5742 5742 5743 5744 5745 5746 5748
5639 5641 5644 5646 5647 5649 5651 5652 5654 5655 5657 5658 5659 5660 5662 5663 5665 5666 5667 5667 5669 5669 5671 5672 5673 5675 5677 5678 5678 5679 5681 5682 5683 5684 5686 5687 5689 5690 5692 5693 5694 5695 5697 5698 5699 5700 5702 5703 5704 5704 5705 5708 5709 5711 5713 5713 5714 5715 5717 5718 5719 5720 5721 5723 5724 5725 5725 5725 5725 5726 5727 5727 5728 5729 5730 5732 5732 5733 5735 5736 5738 5739 5740 5741 5742 5744 5745 5746
5637 5639 5641 5643 5645 5647 5648 5650 5651 5653 5654 5655 5656 5657 5659 5660 5661 5663 5664 5665 5666 5667 5668 5669 5670 5672 5673 5675 5675 5677 5679 5680 5680 5682 5683 5684 5686 5687 5689 5690 5692 5693 5694 5696 5697 5698 5700 5701 5701 5701 5703 5705 5707 5708 5710 5711 5712 5712 5713 5714 5716 5718 5720 5720 5721 5722 5723 5723 5723 5724 5725 5725 5726 5727 5728 5729 5729 5731 5732 5733 5735 5736 5738 5739 5740 5742 5743 5744
5635 5637 5639 5641 5643 5645 5646 5648 5649 5650 5651 5652 5653 5654 5656 5657 5658 5660 5661 5662 5663 5664 5666 5666 5667 5668 5670 5672 5673 5674 5675 5677 5678 5679 5681 5682 5683 5684 5686 5687 5689 5690 5692 5693 5695 5696 5698 5698 5698 5699 5701 5703 5704 5705 5706 5708 5710 5710 5711 5712 5714 5717 5718 5717 5718 5720 5721 5721 5721 5722 5723 5723 5724 5724 5725 5726 5727 5728 5729 5730 5732 5734 5735 5736 5738 5739 5740 5742
5633 5636 5638 5639 5641 5642 5644 5645 5646 5648 5649 5650 5651 5652 5653 5654 5656 5657 5659 5660 5661 5662 5663 5663 5664 5665 5667 5669 5670 5671 5672 5675 5676 5677 5678 5680 5681 5682 5683 5685 5686 5688 5689 5691 5692 5693 5695 5696 5695 5696 5698 5699 5701 5703 5704 5705 5707 5708 5710 5711 5712 5714 5714 5715 5717 5718 5718 5719 5719 5719 5721 5721 5722 5721 5722 5723 5724 5725 5726 5728 5729 5731 5733 5734 5736 5737 5738 5739
5632 5634 5636 5637 5639 5640 5641 5643 5644 5645 5646 5647 5648 5649 5650 5651 5653 5654 5656 5657 5658 5659 5660 5660 5661 5662 5663 5665 5667 5668 5670 5672 5674 5675 5675 5677 5678 5679 5680 5682 5683 5685 5686 5688 5689 5690 5692 5693 5693 5694 5695 5697 5699 5700 5702 5702 5704 5706 5707 5708 5710 5711 5711 5713 5714 5715 5716 5717 5717 5717 5718 5719 5719 5718 5718 5720 5721 5722 5724 5725 5727 5729 5730 5732 5734 5735 5736 5737
5630 5632 5633 5635 5636 5638 5639 5640 5641 5643 5644 5645 5646 5647 5648 5649 5650 5652 5653 5654 5655 5656 5657 5658 5659 5660 5660 5661 5663 5666 5668 5669 5671 5672 5673 5674 5675 5676 5678 5679 5680 5682 5684 5685 5686 5688 5689 5691 5691 5692 5693 5695 5696 5698 5700 5700 5701 5703 5704 5706 5707 5708 5709 5710 5711 5713 5714 5714 5715 5715 5715 5716 5716 5715 5716 5717 5719 5720 5721 5723 5725 5726 5728 5730 5731 5732 5734 5735
5628 5630 5631 5633 5634 5635 5637 5638 5639 5640 5641 5642 5643 5644 5645 5646 5648 5649 5650 5651 5652 5653 5654 5655 5656 5657 5658 5658 5660 5662 5664 5666 5668 5670 5670 5671 5672 5673 5675 5676 5678 5679 5681 5682 5683 5685 5686 5688 5690 5690 5690 5693 5694 5695 5697 5697 5698 5700 5702 5703 5705 5705 5707 5708 5708 5710 5712 5712 5713 5713 5713 5713 5713 5714 5714 5715 5716 5718 5719 5721 5723 5723 5725 5727 5728 5730 5731 5733
5627 5628 5629 5631 5632 5633 5635 5636 5637 5638 5639 5640 5641 5642 5643 5644 5645 5646 5648 5649 5650 5651 5652 5653 5654 5654 5656 5656 5657 5659 5661 5663 5666 5667 5668 5668 5669 5670 5672 5673 5675 5677 5678 5679 5680 5682 5683 5685 5687 5688 5688 5690 5690 5691 5693 5694 5695 5697 5698 5700 5702 5703 5704 5705 5705 5707 5708 5709 5710 5711 5711 5710 5711 5712 5713 5713 5715 5716 5717 5719 5720 5721 5722 5724 5726 5727 5729 5730
5625 5626 5627 5629 5630 5632 5633 5634 5635 5636 5637 5638 5639 5640 5641 5642 5643 5644 5645 5646 5647 5648 5649 5650 5651 5652 5653 5654 5654 5656 5657 5660 5662 5664 5664 5664 5665 5666 5668 5670 5672 5673 5675 5676 5677 5679 5680 5682 5684 5684 5686 5687 5686 5687 5690 5691 5692 5694 5695 5697 5698 5700 5701 5702 5703 5704 5705 5706 5707 5707 5708 5707 5709 5711 5711 5712 5713 5714 5715 5717 5718 5719 5720 5721 5723 5724 5726 5728
5622 5624 5625 5627 5629 5630 5631 5632 5633 5634 5636 5636 5637 5638 5639 5640 5642 5643 5644 5645 5645 5646 5647 5648 5649 5649 5650 5651 5652 5653 5654 5656 5659 5661 5661 5660 5662 5663 5665 5667 5668 5670 5671 5672 5674 5676 5677 5678 5680 5681 5683 5683 5683 5685 5687 5688 5689 5691 5691 5693 5695 5696 5698 5699 5701 5702 5702 5703 5704 5705 5705 5705 5707 5709 5709 5710 5711 5712 5714 5714 5715 5716 5717 5719 5720 5721 5723 5725
5621 5622 5624 5625 5627 5628 5629 5631 5632 5633 5634 5635 5636 5637 5638 5639 5640 5641 5642 5643 5644 5645 5645 5646 5647 5647 5647 5648 5649 5650 5651 5652 5655 5657 5657 5657 5658 5660 5661 5663 5665 5666 5668 5669 5671 5673 5674 5675 5677 5678 5679 5680 5681 5682 5683 5685 5686 5686 5687 5690 5692 5693 5695 5697 5698 5699 5699 5700 5701 5703 5702 5702 5704 5706 5707 5708 5709 5710 5712 5712 5713 5714 5715 5716 5717 5718 5720 5722
5619 5621 5622 5624 5625 5627 5628 5629 5630 5632 5633 5634 5635 5636 5637 5638 5639 5640 5641 5642 5642 5642 5643 5643 5644 5644 5645 5645 5646 5647 5648 5650 5651 5653 5654 5654 5654 5656 5658 5660 5662 5663 5665 5667 5668 5670 5671 5672 5673 5675 5676 5677 5677 5678 5679 5680 5682 5682 5684 5687 5688 5690 5692 5694 5695 5696 5696 5697 5699 5700 5700 5700 5702 5703 5704 5706 5707 5708 5709 5710 5711 5711 5712 5713 5714 5715 5717 5718
5618 5619 5621 5622 5624 5625 5627 5628 5629 5630 5632 5632 5633 5634 5636 5637 5638 5638 5639 5640 5640 5640 5640 5640 5641 5641 5641 5642 5643 5644 5645 5646 5647 5649 5650 5651 5651 5652 5654 5657 5659 5661 5662 5664 5665 5666 5667 5668 5670 5671 5672 5673 5674 5674 5675 5677 5679 5679 5681 5683 5685 5687 5689 5691 5692 5692 5693 5695 5696 5697 5697 5698 5700 5701 5702 5704 5705 5705 5706 5707 5708 5708 5709 5710 5711 5712 5713 5714
5616 5618 5620 5621 5623 5624 5625 5627 5628 5629 5630 5631 5632 5633 5634 5635 5636 5637 5637 5637 5637 5637 5637 5637 5637 5638 5638 5639 5640 5641 5642 5642 5644 5645 5646 5648 5648 5648 5650 5653 5655 5657 5659 5660 5661 5662 5664 5665 5666 5668 5669 5670 5671 5671 5673 5674 5675 5676 5678 5680 5682 5684 5686 5687 5688 5689 5690 5692 5692 5694 5694 5695 5696 5698 5699 5701 5702 5703 5704 5704 5705 5706 5706 5707 5708 5709 5710 5710
5615 5617 5618 5620 5621 5623 5624 5626 5627 5628 5629 5630 5631 5632 5633 5634 5634 5634 5635 5635 5635 5635 5635 5635 5635 5635 5635 5636 5637 5638 5639 5639 5640 5641 5642 5644 5645 5645 5647 5649 5651 5653 5655 5657 5658 5659 5662 5663 5663 5664 5666 5667 5667 5669 5670 5671 5672 5673 5675 5677 5679 5681 5682 5684 5685 5686 5688 5688 5689 5691 5692 5692 5694 5696 5697 5698 5700 5700 5701 5702 5703 5703 5704 5704 5705 5705 5706 5707
5614 5616 5617 5619 5620 5622 5623 5625 5626 5627 5628 5629 5630 5631 5631 5632 5632 5632 5632 5633 5633 5633 5632 5632 5632 5633 5633 5634 5635 5635 5636 5637 5637 5638 5639 5640 5641 5642 5643 5645 5647 5649 5651 5653 5655 5657 5659 5660 5660 5661 5662 5663 5664 5666 5667 5668 5669 5670 5672 5673 5675 5677 5679 5680 5682 5684 5685 5686 5686 5688 5689 5690 5692 5693 5695 5696 5697 5698 5698 5699 5700 5700 5701 5702 5702 5703 5703 5704
5613 5615 5616 5618 5620 5621 5623 5624 5625 5626 5627 5628 5629 5630 5630 5630 5630 5630 5630 5630 5630 5630 5630 5630 5630 5630 5631 5631 5632 5633 5633 5634 5635 5635 5636 5637 5638 5639 5640 5642 5644 5646 5647 5649 5651 5653 5655 5656 5656 5658 5659 5660 5662 5663 5664 5666 5666 5667 5669 5670 5672 5674 5675 5677 5679 5680 5682 5683 5684 5685 5687 5688 5689 5690 5692 5693 5694 5695 5695 5696 5697 5698 5698 5699 5700 5700 5700 5701
5612 5614 5616 5617 5619 5621 5622 5623 5624 5625 5626 5627 5627 5628 5628 5628 5628 5628 5628 5628 5628 5628 5628 5628 5628 5628 5628 5628 5629 5630 5631 5631 5632 5633 5633 5634 5635 5636 5637 5638 5640 5642 5643 5645 5647 5649 5651 5652 5653 5655 5657 5658 5659 5660 5661 5663 5664 5665 5666 5667 5668 5670 5672 5673 5675 5677 5679 5680 5681 5683 5684 5686 5687 5688 5689 5690 5691 5692 5693 5693 5694 5695 5695 5696 5697 5698 5698 5698
5611 5613 5615 5617 5619 5620 5621 5623 5623 5624 5625 5625 5626 5626 5626 5626 5626 5626 5626 5626 5626 5626 5626 5625 5625 5625 5625 5625 5626 5627 5628 5628 5629 5630 5631 5632 5632 5633 5634 5635 5636 5638 5639 5642 5644 5646 5647 5648 5650 5652 5654 5655 5656 5657 5659 5660 5661 5662 5663 5664 5665 5666 5668 5669 5671 5673 5675 5677 5678 5679 5681 5683 5684 5685 5687 5688 5689 5689 5690 5691 5691 5692 5692 5694 5694 5695 5695 5696